User: anonymous   Login
Location: Caltech
(34.1382°N, 118.1253°W)
Time: 04:47:32
(UTC-07:00)
Language:

BREEZE M DEB (TANK) - Orbit

View from above orbital plane
View from above orbital plane
View from above satellite
View from above satellite

Ground track
Ground track

The orbit data is extracted from the following two-line orbital elements,

1 33437U 08057B   16181.38205544 +.00000526 +00000-0 +12351-3 0  9996
2 33437 049.5681 187.8934 4989145 179.1676 182.2890 05.59554701154081
Epoch (UTC): 29 June 2016 09:10:09
Eccentricity: 0.4989145
inclination: 49.5681°
perigee height: 337 km
apogee height: 13710 km
right ascension of ascending node: 187.8934°
argument of perigee: 179.1676°
revolutions per day: 5.59554701
mean anomaly at epoch: 182.2890°
orbit number at epoch: 15408

The dashed part of the orbit path shows where the satellite is in the earth's shadow,  

DLR